Location: Boiro
(42.6475°N, 8.8834°W)
Time: 13:27:55
(UTC+01:00)

A-11 Canister half - All Passes

Search period start: 09 December 2021 00:00
Search period end: 19 December 2021 00:00
Orbit: 1524 x 1685 km, 47.3° (Epoch: 08 December)

Date Brightness Start Highest point End Pass type
(mag) Time Alt. Az. Time Alt. Az. Time Alt. Az.
09 Dec - 00:16:02 10° SSW 00:25:03 39° SE 00:34:07 10° ENE night (unlit)
09 Dec - 02:19:19 10° WSW 02:29:32 88° SSE 02:39:43 10° ENE visible
09 Dec - 04:25:11 10° W 04:35:21 68° N 04:45:20 10° E visible
09 Dec - 06:31:02 10° WNW 06:41:13 87° NNE 06:51:05 10° ESE visible
09 Dec - 08:36:38 10° WNW 08:45:45 42° SW 08:54:36 10° SSE daylight
09 Dec - 23:54:32 10° SSW 00:03:25 37° SE 00:12:20 10° ENE night (unlit)
10 Dec - 01:57:37 10° WSW 02:07:49 86° SSE 02:18:00 10° ENE visible
10 Dec - 04:03:26 10° W 04:13:36 68° N 04:23:36 10° E visible
10 Dec - 06:09:17 10° WNW 06:19:30 86° NNE 06:29:24 10° ESE visible
10 Dec - 08:14:53 10° WNW 08:24:07 44° SW 08:33:05 10° SSE visible
10 Dec - 23:33:03 10° SSW 23:41:47 35° SE 23:50:34 10° ENE night (unlit)
11 Dec - 01:35:56 10° WSW 01:46:06 84° SSE 01:56:17 10° ENE visible
11 Dec - 03:41:40 10° W 03:51:51 68° N 04:01:53 10° E visible
11 Dec - 05:47:33 10° WNW 05:57:47 84° NNE 06:07:42 10° ESE visible
11 Dec - 07:53:07 10° WNW 08:02:29 46° SW 08:11:34 10° SSE visible
11 Dec - 10:03:05 10° WSW 10:05:32 11° WSW 10:07:58 10° SW daylight
11 Dec - 23:11:34 10° S 23:20:08 33° SE 23:28:47 10° ENE night (unlit)
12 Dec - 01:14:14 10° WSW 01:24:24 82° SSE 01:34:35 10° ENE night (unlit)
12 Dec - 03:19:55 10° W 03:30:05 69° N 03:40:09 10° E visible
12 Dec - 05:25:50 10° WNW 05:36:04 82° NNE 05:46:01 10° ESE visible
12 Dec - 07:31:22 10° WNW 07:40:50 49° SW 07:50:02 10° SSE visible
12 Dec - 09:40:28 10° W 09:43:58 12° WSW 09:47:24 10° SW daylight
12 Dec - 22:50:07 10° S 22:58:30 31° SE 23:06:58 10° ENE night (unlit)
13 Dec - 00:52:33 10° SW 01:02:41 80° SSE 01:12:52 10° ENE night (unlit)
13 Dec - 02:58:09 10° W 03:08:20 69° N 03:18:25 10° ENE visible
13 Dec - 05:04:05 10° WNW 05:14:20 81° NNE 05:24:19 10° ESE visible
13 Dec - 07:09:37 10° WNW 07:19:11 51° SW 07:28:29 10° SSE visible
13 Dec - 09:18:09 10° W 09:22:23 14° WSW 09:26:35 10° SSW daylight
13 Dec - 22:28:41 10° S 22:36:53 30° SE 22:45:10 10° ENE visible
14 Dec - 00:30:53 10° SW 00:40:59 77° SSE 00:51:10 10° ENE night (unlit)
14 Dec - 02:36:24 10° W 02:46:35 70° N 02:56:41 10° ENE visible
14 Dec - 04:42:21 10° WNW 04:52:36 79° NNE 05:02:36 10° ESE visible
14 Dec - 06:47:51 10° WNW 06:57:32 53° SW 07:06:56 10° SSE visible
14 Dec - 08:55:57 10° W 09:00:48 15° WSW 09:05:37 10° SSW daylight
14 Dec - 22:07:17 10° S 22:15:16 28° SE 22:23:21 10° ENE visible
15 Dec - 00:09:13 10° SW 00:19:17 75° SSE 00:29:26 10° ENE night (unlit)
15 Dec - 02:14:39 10° W 02:24:50 70° N 02:34:58 10° ENE visible
15 Dec - 04:20:37 10° WNW 04:30:52 78° NNE 04:40:54 10° ESE visible
15 Dec - 06:26:07 10° WNW 06:35:53 56° SW 06:45:21 10° SE visible
15 Dec - 08:33:50 10° W 08:39:13 16° WSW 08:44:33 10° SSW daylight
15 Dec - 21:45:53 10° S 21:53:38 26° SE 22:01:29 10° ENE visible
15 Dec - 23:47:34 10° SW 23:57:35 73° SSE 00:07:43 10° ENE visible
16 Dec - 01:52:53 10° W 02:03:05 71° N 02:13:13 10° ENE visible
16 Dec - 03:58:53 10° WNW 04:09:08 77° NNE 04:19:10 10° ESE visible
16 Dec - 06:04:23 10° WNW 06:14:13 58° SW 06:23:46 10° SE visible
16 Dec - 08:11:47 10° W 08:17:39 17° WSW 08:23:25 10° SSW visible
16 Dec - 21:24:31 10° S 21:32:02 25° SE 21:39:38 10° ENE visible
16 Dec - 23:25:56 10° SW 23:35:53 70° SSE 23:46:00 10° ENE visible
17 Dec - 01:31:09 10° W 01:41:19 72° N 01:51:29 10° ENE night (unlit)
17 Dec - 03:37:08 10° WNW 03:47:24 75° NNE 03:57:27 10° E visible
17 Dec - 05:42:38 10° WNW 05:52:32 60° SW 06:02:11 10° SE visible
17 Dec - 07:49:48 10° W 07:56:03 19° SW 08:02:14 10° SSW visible
17 Dec - 21:03:10 10° S 21:10:25 23° SE 21:17:45 10° E visible
17 Dec - 23:04:17 10° SW 23:14:12 68° SE 23:24:16 10° ENE visible
18 Dec - 01:09:24 10° W 01:19:34 72° N 01:29:46 10° ENE night (unlit)
18 Dec - 03:15:24 10° WNW 03:25:39 74° NNE 03:35:44 10° E visible
18 Dec - 05:20:54 10° WNW 05:30:52 63° SW 05:40:35 10° SE visible
18 Dec - 07:27:50 10° W 07:34:27 20° SW 07:40:59 10° SSW visible
18 Dec - 20:41:51 10° S 20:48:49 22° SE 20:55:51 10° E visible
18 Dec - 22:42:39 10° SW 22:52:30 66° SE 23:02:32 10° ENE visible
